Location: Atlantic Beach
(40.5890°N, 73.7290°W)
Time: 13:44:51
(UTC+00:00)

Okean-O - Pass Details

Date: 29 October 2020
Orbit: 638 x 641 km, 98.2° (Epoch: 01 December)

Event Time Altitude Azimuth Distance (km) Brightness Sun altitude
Rises 22:50:23 0° 145° (SE) 2,933 5.8 -11.2°
Reaches altitude 10° 22:52:42 10° 137° (SE) 2,029 4.9 -11.6°
Maximum altitude 22:56:44 36° 70° (ENE) 1,012 3.1 -12.4°
Drops below altitude 10° 23:00:49 10° 4° (N) 2,041 5.1 -13.1°
Sets 23:03:09 0° 356° (N) 2,955 6.0 -13.6°
